| time (UTC) | temp F | wind direction | speed MPH | gust MPH | rain 1hr in | rain 24hr in | rain mn in | humidity % | barometer mb |
| 20260506084404 | 47 | 10 | 1.0 | 2.0 | 0.00 | 0.00 | 0.00 | 69 | 1016.1 |
| 20260506083905 | 47 | 10 | 0.0 | 2.0 | 0.00 | 0.00 | 0.00 | 70 | 1016.2 |
| 20260506082905 | 47 | 10 | 1.0 | 3.0 | 0.00 | 0.00 | 0.00 | 71 | 1016.2 |
| 20260506082405 | 46 | 10 | 0.0 | 2.0 | 0.00 | 0.00 | 0.00 | 73 | 1016.3 |
| 20260506081905 | 46 | 10 | 1.0 | 3.0 | 0.00 | 0.00 | 0.00 | 73 | 1016.2 |
| 20260506081404 | 46 | 11 | 1.0 | 3.0 | 0.00 | 0.00 | 0.00 | 73 | 1016.2 |
| 20260506080904 | 46 | 11 | 0.0 | 3.0 | 0.00 | 0.00 | 0.00 | 74 | 1016.2 |
| 20260506080405 | 45 | 11 | 1.0 | 3.0 | 0.00 | 0.00 | 0.00 | 74 | 1016.1 |
| 20260506073404 | 44 | 11 | 0.0 | 0.0 | 0.00 | 0.00 | 0.00 | 82 | 1016.3 |
| 20260506072905 | 43 | 11 | 0.0 | 0.0 | 0.00 | 0.00 | 0.00 | 82 | 1016.3 |
| 20260506072406 | 43 | 11 | 0.0 | 0.0 | 0.00 | 0.00 | 0.00 | 84 | 1016.3 |
| 20260506071905 | 43 | 11 | 0.0 | 0.0 | 0.00 | 0.00 | 0.00 | 85 | 1016.3 |
| 20260506071405 | 42 | 11 | 0.0 | 0.0 | 0.00 | 0.00 | 0.00 | 87 | 1016.3 |
| 20260506070906 | 42 | 11 | 0.0 | 0.0 | 0.00 | 0.00 | 0.00 | 89 | 1016.3 |
| 20260506070405 | 41 | 11 | 0.0 | 0.0 | 0.00 | 0.00 | 0.00 | 90 | 1016.3 |
| 20260506062405 | 39 | 11 | 0.0 | 0.0 | 0.00 | 0.00 | 0.00 | 95 | 1016.4 |
| 20260506061905 | 39 | 14 | 0.0 | 0.0 | 0.00 | 0.00 | 0.00 | 95 | 1016.3 |
| 20260506061405 | 39 | 14 | 0.0 | 0.0 | 0.00 | 0.00 | 0.00 | 95 | 1016.3 |
| 20260506060905 | 39 | 14 | 0.0 | 0.0 | 0.00 | 0.00 | 0.00 | 95 | 1016.4 |
| 20260506060405 | 39 | 14 | 0.0 | 0.0 | 0.00 | 0.00 | 0.00 | 95 | 1016.4 |
| 20260506051406 | 37 | 14 | 0.0 | 0.0 | 0.00 | 0.00 | 0.00 | 94 | 1016.7 |
| 20260506050906 | 37 | 14 | 0.0 | 0.0 | 0.00 | 0.00 | 0.00 | 94 | 1016.6 |
| 20260506050404 | 37 | 14 | 0.0 | 0.0 | 0.00 | 0.00 | 0.00 | 94 | 1016.7 |
| 20260506044906 | 37 | 14 | 0.0 | 0.0 | 0.00 | 0.00 | 0.00 | 94 | 1016.6 |
| 20260506043904 | 36 | 14 | 0.0 | 0.0 | 0.00 | 0.00 | 0.00 | 94 | 1016.7 |
| 20260506043405 | 36 | 14 | 0.0 | 0.0 | 0.00 | 0.00 | 0.00 | 94 | 1016.8 |
| 20260506042905 | 36 | 14 | 0.0 | 0.0 | 0.00 | 0.00 | 0.00 | 94 | 1016.7 |
| 20260506041905 | 36 | 14 | 0.0 | 0.0 | 0.00 | 0.00 | 0.00 | 94 | 1016.8 |
| 20260506041405 | 36 | 14 | 0.0 | 0.0 | 0.00 | 0.00 | 0.00 | 94 | 1016.8 |
| 20260506040905 | 36 | 14 | 0.0 | 0.0 | 0.00 | 0.00 | 0.00 | 94 | 1016.9 |
| 20260506035406 | 35 | 14 | 0.0 | 0.0 | 0.00 | 0.00 | 0.00 | 93 | 1016.9 |
| 20260506034906 | 35 | 14 | 0.0 | 0.0 | 0.00 | 0.00 | 0.00 | 93 | 1016.9 |
| 20260506034406 | 35 | 14 | 0.0 | 0.0 | 0.00 | 0.00 | 0.00 | 93 | 1016.9 |
| 20260506033905 | 35 | 14 | 0.0 | 0.0 | 0.00 | 0.00 | 0.00 | 93 | 1016.8 |
| 20260506033406 | 35 | 14 | 0.0 | 0.0 | 0.00 | 0.00 | 0.00 | 93 | 1016.9 |
| 20260506032905 | 35 | 14 | 0.0 | 0.0 | 0.00 | 0.00 | 0.00 | 93 | 1016.9 |
| 20260506032405 | 35 | 14 | 0.0 | 0.0 | 0.00 | 0.00 | 0.00 | 93 | 1016.9 |
| 20260506031906 | 35 | 14 | 0.0 | 0.0 | 0.00 | 0.00 | 0.00 | 93 | 1016.9 |
| 20260506031405 | 35 | 14 | 0.0 | 0.0 | 0.00 | 0.00 | 0.00 | 93 | 1016.9 |
| 20260506030905 | 35 | 14 | 0.0 | 0.0 | 0.00 | 0.00 | 0.00 | 92 | 1016.9 |
| 20260506030407 | 35 | 14 | 0.0 | 0.0 | 0.00 | 0.00 | 0.00 | 92 | 1017.0 |
| 20260506025906 | 34 | 14 | 0.0 | 0.0 | 0.00 | 0.00 | 0.00 | 92 | 1016.8 |
| 20260506025404 | 34 | 14 | 0.0 | 0.0 | 0.00 | 0.00 | 0.00 | 92 | 1016.8 |
| 20260506024905 | 34 | 14 | 0.0 | 0.0 | 0.00 | 0.00 | 0.00 | 92 | 1016.7 |
| 20260506024406 | 34 | 14 | 0.0 | 0.0 | 0.00 | 0.00 | 0.00 | 92 | 1016.7 |
| 20260506023905 | 34 | 14 | 0.0 | 0.0 | 0.00 | 0.00 | 0.00 | 91 | 1016.7 |
| 20260506023406 | 34 | 14 | 0.0 | 0.0 | 0.00 | 0.00 | 0.00 | 91 | 1016.7 |
| 20260506022405 | 34 | 14 | 0.0 | 0.0 | 0.00 | 0.00 | 0.00 | 91 | 1016.7 |
| 20260506021905 | 34 | 14 | 0.0 | 0.0 | 0.00 | 0.00 | 0.00 | 91 | 1016.7 |
| 20260506021405 | 34 | 14 | 0.0 | 0.0 | 0.00 | 0.00 | 0.00 | 91 | 1016.7 |
| 20260506020904 | 34 | 14 | 0.0 | 0.0 | 0.00 | 0.00 | 0.00 | 90 | 1016.8 |
| 20260506020406 | 34 | 14 | 0.0 | 0.0 | 0.00 | 0.00 | 0.00 | 91 | 1016.8 |
| 20260506015406 | 34 | 14 | 0.0 | 0.0 | 0.00 | 0.00 | 0.00 | 91 | 1016.8 |
| 20260506014405 | 34 | 14 | 0.0 | 0.0 | 0.00 | 0.00 | 0.00 | 90 | 1016.8 |
| 20260506012904 | 34 | 14 | 0.0 | 0.0 | 0.00 | 0.00 | 0.00 | 90 | 1016.8 |
| 20260506012405 | 34 | 14 | 0.0 | 0.0 | 0.00 | 0.00 | 0.00 | 90 | 1016.8 |
| 20260506011905 | 34 | 14 | 0.0 | 0.0 | 0.00 | 0.00 | 0.00 | 90 | 1016.8 |
| 20260506011405 | 34 | 14 | 0.0 | 0.0 | 0.00 | 0.00 | 0.00 | 89 | 1016.7 |
| 20260506010904 | 34 | 14 | 0.0 | 0.0 | 0.00 | 0.00 | 0.00 | 89 | 1016.8 |
| 20260506010405 | 34 | 14 | 0.0 | 0.0 | 0.00 | 0.00 | 0.00 | 89 | 1016.8 |
| 20260506005405 | 34 | 14 | 0.0 | 0.0 | 0.00 | 0.00 | 0.00 | 88 | 1016.9 |
| 20260506004905 | 35 | 14 | 0.0 | 0.0 | 0.00 | 0.00 | 0.00 | 87 | 1016.9 |
| 20260506004405 | 35 | 14 | 0.0 | 0.0 | 0.00 | 0.00 | 0.00 | 87 | 1016.9 |
| 20260506003904 | 35 | 14 | 0.0 | 0.0 | 0.00 | 0.00 | 0.00 | 86 | 1017.0 |
| 20260506003406 | 35 | 14 | 0.0 | 0.0 | 0.00 | 0.00 | 0.00 | 86 | 1016.9 |
| 20260506002906 | 35 | 14 | 0.0 | 0.0 | 0.00 | 0.00 | 0.00 | 86 | 1017.0 |
| 20260506001905 | 36 | 14 | 0.0 | 0.0 | 0.00 | 0.00 | 0.00 | 85 | 1017.0 |
| 20260506001405 | 36 | 14 | 0.0 | 0.0 | 0.00 | 0.00 | 0.00 | 85 | 1016.9 |
| 20260506000905 | 37 | 14 | 0.0 | 0.0 | 0.00 | 0.00 | 0.00 | 85 | 1016.9 |
| 20260506000408 | 37 | 14 | 0.0 | 0.0 | 0.00 | 0.00 | 0.00 | 84 | 1017.1 |
| 20260505235906 | 37 | 14 | 0.0 | 0.0 | 0.00 | 0.00 | 0.00 | 84 | 1017.1 |
| 20260505235405 | 37 | 14 | 0.0 | 0.0 | 0.00 | 0.00 | 0.00 | 84 | 1017.0 |
| 20260505234905 | 37 | 14 | 0.0 | 0.0 | 0.00 | 0.00 | 0.00 | 84 | 1017.0 |
| 20260505234405 | 38 | 14 | 0.0 | 0.0 | 0.00 | 0.00 | 0.00 | 84 | 1017.0 |
| 20260505233905 | 38 | 14 | 0.0 | 0.0 | 0.00 | 0.00 | 0.00 | 84 | 1017.0 |
| 20260505233405 | 38 | 14 | 0.0 | 0.0 | 0.00 | 0.00 | 0.00 | 84 | 1017.0 |
| 20260505232906 | 38 | 14 | 0.0 | 0.0 | 0.00 | 0.00 | 0.00 | 84 | 1017.0 |
| 20260505232405 | 38 | 14 | 0.0 | 0.0 | 0.00 | 0.00 | 0.00 | 84 | 1017.1 |
| 20260505231905 | 38 | 14 | 0.0 | 0.0 | 0.00 | 0.00 | 0.00 | 84 | 1017.1 |
| 20260505231406 | 38 | 14 | 0.0 | 0.0 | 0.00 | 0.00 | 0.00 | 84 | 1016.9 |
| 20260505230905 | 38 | 14 | 0.0 | 0.0 | 0.00 | 0.00 | 0.00 | 84 | 1017.0 |
| 20260505230405 | 38 | 14 | 0.0 | 0.0 | 0.00 | 0.00 | 0.00 | 84 | 1016.9 |
| 20260505225405 | 38 | 14 | 0.0 | 0.0 | 0.00 | 0.00 | 0.00 | 83 | 1017.1 |
| 20260505224903 | 38 | 14 | 0.0 | 0.0 | 0.00 | 0.00 | 0.00 | 82 | 1017.1 |
| 20260505224405 | 38 | 14 | 0.0 | 0.0 | 0.00 | 0.00 | 0.00 | 82 | 1017.1 |
| 20260505223904 | 38 | 14 | 0.0 | 0.0 | 0.00 | 0.00 | 0.00 | 81 | 1017.2 |
| 20260505223405 | 38 | 14 | 0.0 | 0.0 | 0.00 | 0.00 | 0.00 | 81 | 1017.1 |
| 20260505222904 | 39 | 14 | 0.0 | 0.0 | 0.00 | 0.00 | 0.00 | 80 | 1017.1 |
| 20260505222403 | 39 | 14 | 0.0 | 0.0 | 0.00 | 0.00 | 0.00 | 79 | 1017.1 |
| 20260505221903 | 39 | 14 | 0.0 | 0.0 | 0.00 | 0.00 | 0.00 | 79 | 1017.1 |
| 20260505215904 | 40 | 14 | 0.0 | 0.0 | 0.00 | 0.00 | 0.00 | 76 | 1017.0 |
| 20260505214904 | 41 | 14 | 0.0 | 0.0 | 0.00 | 0.00 | 0.00 | 74 | 1017.0 |
| 20260505214403 | 41 | 14 | 0.0 | 0.0 | 0.00 | 0.00 | 0.00 | 73 | 1017.0 |
| 20260505213904 | 42 | 14 | 0.0 | 0.0 | 0.00 | 0.00 | 0.00 | 73 | 1017.0 |
| 20260505212905 | 43 | 14 | 0.0 | 0.0 | 0.00 | 0.00 | 0.00 | 71 | 1016.9 |
| 20260505212403 | 43 | 14 | 0.0 | 0.0 | 0.00 | 0.00 | 0.00 | 70 | 1016.9 |
| 20260505211903 | 44 | 14 | 0.0 | 0.0 | 0.00 | 0.00 | 0.00 | 70 | 1016.9 |
| 20260505211404 | 44 | 14 | 0.0 | 0.0 | 0.00 | 0.00 | 0.00 | 69 | 1016.9 |
| 20260505210903 | 45 | 14 | 0.0 | 0.0 | 0.00 | 0.00 | 0.00 | 68 | 1016.9 |
| 20260505205403 | 46 | 14 | 0.0 | 0.0 | 0.00 | 0.00 | 0.00 | 68 | 1016.9 |
| 20260505204403 | 46 | 14 | 0.0 | 0.0 | 0.00 | 0.00 | 0.00 | 66 | 1016.9 |
| 20260505203903 | 47 | 14 | 0.0 | 0.0 | 0.00 | 0.00 | 0.00 | 64 | 1016.9 |
| 20260505202904 | 47 | 14 | 0.0 | 0.0 | 0.00 | 0.00 | 0.00 | 63 | 1016.9 |
| 20260505201903 | 47 | 14 | 0.0 | 0.0 | 0.00 | 0.00 | 0.00 | 60 | 1016.8 |
| 20260505201403 | 47 | 14 | 0.0 | 0.0 | 0.00 | 0.00 | 0.00 | 59 | 1016.8 |
| 20260505200903 | 48 | 14 | 0.0 | 3.0 | 0.00 | 0.00 | 0.00 | 58 | 1016.8 |
| 20260505200403 | 48 | 14 | 0.0 | 3.0 | 0.00 | 0.00 | 0.00 | 57 | 1016.8 |
| 20260505195904 | 48 | 14 | 2.0 | 3.0 | 0.00 | 0.00 | 0.00 | 56 | 1016.8 |
| 20260505195403 | 48 | 14 | 1.0 | 3.0 | 0.00 | 0.00 | 0.00 | 56 | 1016.7 |
| 20260505194904 | 48 | 14 | 3.0 | 6.0 | 0.00 | 0.00 | 0.00 | 56 | 1016.7 |
| 20260505194404 | 48 | 22 | 2.0 | 3.0 | 0.00 | 0.00 | 0.00 | 56 | 1016.6 |
| 20260505192903 | 49 | 352 | 3.0 | 9.0 | 0.00 | 0.00 | 0.00 | 53 | 1016.5 |
| 20260505191904 | 49 | 6 | 3.0 | 10.0 | 0.00 | 0.00 | 0.00 | 53 | 1016.4 |
| 20260505191403 | 50 | 32 | 3.0 | 10.0 | 0.00 | 0.00 | 0.00 | 53 | 1016.5 |
| 20260505190904 | 50 | 11 | 2.0 | 8.0 | 0.00 | 0.00 | 0.00 | 53 | 1016.4 |
| 20260505190404 | 50 | 0 | 3.0 | 12.0 | 0.00 | 0.00 | 0.00 | 53 | 1016.3 |
| 20260505185904 | 51 | 20 | 3.0 | 7.0 | 0.00 | 0.00 | 0.00 | 53 | 1016.2 |
| 20260505185403 | 51 | 0 | 3.0 | 8.0 | 0.00 | 0.00 | 0.00 | 52 | 1016.3 |
| 20260505184904 | 51 | 18 | 6.0 | 8.0 | 0.00 | 0.00 | 0.00 | 50 | 1016.2 |
| 20260505184403 | 52 | 8 | 3.0 | 8.0 | 0.00 | 0.00 | 0.00 | 51 | 1016.2 |
| 20260505183904 | 52 | 12 | 4.0 | 12.0 | 0.00 | 0.00 | 0.00 | 50 | 1016.2 |
| 20260505183403 | 52 | 9 | 5.0 | 14.0 | 0.00 | 0.00 | 0.00 | 51 | 1016.1 |
| 20260505182903 | 52 | 358 | 3.0 | 12.0 | 0.00 | 0.00 | 0.00 | 51 | 1016.1 |
| 20260505181903 | 52 | 19 | 5.0 | 12.0 | 0.00 | 0.00 | 0.00 | 50 | 1016.0 |
| 20260505181404 | 52 | 42 | 3.0 | 9.0 | 0.00 | 0.00 | 0.00 | 51 | 1016.0 |
| 20260505180404 | 53 | 16 | 2.0 | 9.0 | 0.00 | 0.00 | 0.00 | 51 | 1015.9 |
| 20260505175904 | 52 | 19 | 3.0 | 9.0 | 0.00 | 0.00 | 0.00 | 53 | 1016.0 |
| 20260505174904 | 51 | 22 | 5.0 | 12.0 | 0.00 | 0.00 | 0.00 | 51 | 1016.0 |
| 20260505174403 | 52 | 18 | 3.0 | 9.0 | 0.00 | 0.00 | 0.00 | 52 | 1016.0 |
| 20260505173904 | 52 | 8 | 6.0 | 12.0 | 0.00 | 0.00 | 0.00 | 50 | 1016.0 |
| 20260505173404 | 53 | 40 | 3.0 | 8.0 | 0.00 | 0.00 | 0.00 | 48 | 1016.0 |
| 20260505172903 | 55 | 30 | 2.0 | 8.0 | 0.00 | 0.00 | 0.00 | 49 | 1015.9 |
| 20260505172404 | 55 | 350 | 5.0 | 12.0 | 0.00 | 0.00 | 0.00 | 47 | 1015.9 |
| 20260505171903 | 55 | 41 | 3.0 | 9.0 | 0.00 | 0.00 | 0.00 | 48 | 1016.0 |
| 20260505170904 | 56 | 11 | 6.0 | 10.0 | 0.00 | 0.00 | 0.00 | 47 | 1015.9 |
| 20260505165903 | 56 | 15 | 6.0 | 10.0 | 0.00 | 0.00 | 0.00 | 48 | 1015.8 |
| 20260505165404 | 56 | 5 | 5.0 | 12.0 | 0.00 | 0.00 | 0.00 | 48 | 1015.8 |
| 20260505164904 | 55 | 355 | 5.0 | 7.0 | 0.00 | 0.00 | 0.00 | 52 | 1015.8 |
| 20260505164405 | 54 | 16 | 2.0 | 7.0 | 0.00 | 0.00 | 0.00 | 50 | 1015.8 |
| 20260505163403 | 55 | 0 | 4.0 | 9.0 | 0.00 | 0.00 | 0.00 | 51 | 1015.8 |
| 20260505162903 | 54 | 7 | 5.0 | 12.0 | 0.00 | 0.00 | 0.00 | 49 | 1015.9 |
| 20260505162404 | 55 | 24 | 4.0 | 10.0 | 0.00 | 0.00 | 0.00 | 49 | 1015.9 |
| 20260505161904 | 55 | 4 | 5.0 | 10.0 | 0.00 | 0.00 | 0.00 | 50 | 1015.9 |
| 20260505161403 | 55 | 8 | 3.0 | 12.0 | 0.00 | 0.00 | 0.00 | 49 | 1015.9 |
| 20260505160404 | 54 | 23 | 4.0 | 9.0 | 0.00 | 0.00 | 0.00 | 49 | 1016.0 |
| 20260505152405 | 56 | 34 | 4.0 | 9.0 | 0.00 | 0.00 | 0.00 | 50 | 1016.1 |
| 20260505151904 | 56 | 26 | 4.0 | 12.0 | 0.00 | 0.00 | 0.00 | 49 | 1016.1 |
| 20260505151403 | 56 | 16 | 5.0 | 18.0 | 0.00 | 0.00 | 0.00 | 49 | 1016.1 |
| 20260505150904 | 57 | 20 | 5.0 | 10.0 | 0.00 | 0.00 | 0.00 | 50 | 1016.0 |
| 20260505150405 | 56 | 18 | 3.0 | 9.0 | 0.00 | 0.00 | 0.00 | 49 | 1016.0 |
| 20260505124904 | 52 | 14 | 7.0 | 13.0 | 0.00 | 0.00 | 0.00 | 61 | 1016.4 |
| 20260505124403 | 51 | 359 | 6.0 | 15.0 | 0.00 | 0.00 | 0.00 | 63 | 1016.3 |
| 20260505123905 | 50 | 37 | 3.0 | 8.0 | 0.00 | 0.00 | 0.00 | 65 | 1016.4 |
| 20260505123405 | 51 | 14 | 3.0 | 12.0 | 0.00 | 0.00 | 0.00 | 63 | 1016.4 |
| 20260505122906 | 53 | 1 | 6.0 | 12.0 | 0.00 | 0.00 | 0.00 | 60 | 1016.4 |
| 20260505122404 | 53 | 28 | 5.0 | 14.0 | 0.00 | 0.00 | 0.00 | 63 | 1016.4 |
| 20260505121905 | 52 | 5 | 7.0 | 15.0 | 0.00 | 0.00 | 0.00 | 64 | 1016.4 |
| 20260505121404 | 50 | 7 | 6.0 | 13.0 | 0.00 | 0.00 | 0.00 | 65 | 1016.4 |
| 20260505120904 | 49 | 10 | 7.0 | 13.0 | 0.00 | 0.00 | 0.00 | 66 | 1016.4 |
| 20260505120406 | 48 | 26 | 6.0 | 14.0 | 0.00 | 0.00 | 0.00 | 67 | 1016.5 |
| 20260505115904 | 48 | 5 | 6.0 | 16.0 | 0.00 | 0.00 | 0.00 | 67 | 1016.5 |
| 20260505115404 | 48 | 17 | 5.0 | 13.0 | 0.00 | 0.00 | 0.00 | 69 | 1016.5 |
| 20260505114903 | 48 | 16 | 5.0 | 12.0 | 0.00 | 0.00 | 0.00 | 69 | 1016.5 |
| 20260505114405 | 48 | 26 | 5.0 | 12.0 | 0.00 | 0.00 | 0.00 | 68 | 1016.6 |
| 20260505113403 | 48 | 6 | 7.0 | 15.0 | 0.00 | 0.00 | 0.00 | 69 | 1016.6 |
| 20260505112905 | 48 | 31 | 7.0 | 14.0 | 0.00 | 0.00 | 0.00 | 70 | 1016.6 |
| 20260505112404 | 48 | 20 | 8.0 | 16.0 | 0.00 | 0.00 | 0.00 | 70 | 1016.5 |
| 20260505111403 | 49 | 24 | 8.0 | 18.0 | 0.00 | 0.00 | 0.00 | 71 | 1016.5 |
| 20260505110905 | 47 | 15 | 7.0 | 14.0 | 0.00 | 0.00 | 0.00 | 71 | 1016.5 |
| 20260505110404 | 48 | 8 | 6.0 | 14.0 | 0.00 | 0.00 | 0.00 | 71 | 1016.6 |
| 20260505101905 | 47 | 12 | 5.0 | 14.0 | 0.00 | 0.00 | 0.00 | 78 | 1016.7 |
| 20260505101404 | 47 | 4 | 8.0 | 16.0 | 0.00 | 0.00 | 0.00 | 78 | 1016.6 |
| 20260505100904 | 47 | 11 | 7.0 | 16.0 | 0.00 | 0.00 | 0.00 | 79 | 1016.6 |
| 20260505100405 | 46 | 15 | 7.0 | 14.0 | 0.00 | 0.00 | 0.00 | 80 | 1016.6 |
| 20260505095904 | 46 | 358 | 6.0 | 14.0 | 0.00 | 0.00 | 0.00 | 81 | 1016.6 |
| 20260505095404 | 46 | 23 | 6.0 | 14.0 | 0.00 | 0.00 | 0.00 | 81 | 1016.7 |
| 20260505094905 | 46 | 9 | 4.0 | 12.0 | 0.00 | 0.00 | 0.00 | 84 | 1016.6 |
| 20260505093904 | 47 | 33 | 6.0 | 10.0 | 0.00 | 0.00 | 0.00 | 85 | 1016.6 |
| 20260505093405 | 47 | 13 | 6.0 | 13.0 | 0.00 | 0.00 | 0.00 | 86 | 1016.5 |
| 20260505092904 | 46 | 12 | 6.0 | 12.0 | 0.00 | 0.00 | 0.00 | 86 | 1016.6 |
| 20260505092405 | 46 | 19 | 5.0 | 12.0 | 0.00 | 0.00 | 0.00 | 86 | 1016.6 |
| 20260505091405 | 46 | 20 | 4.0 | 12.0 | 0.00 | 0.00 | 0.00 | 85 | 1016.5 |
| 20260505090905 | 47 | 9 | 5.0 | 12.0 | 0.00 | 0.00 | 0.00 | 82 | 1016.4 |
| 20260505085903 | 49 | 9 | 3.0 | 12.0 | 0.00 | 0.00 | 0.00 | 71 | 1016.1 |
| 20260505084904 | 49 | 223 | 0.0 | 3.0 | 0.00 | 0.00 | 0.00 | 73 | 1016.0 |